User: anonymous   Login
Location: Scultetus-Sternwarte G�rlitz
(51.1356°N, 14.9514°E)
Time: 13:30:05
(UTC+02:00)
Language:

Iridium 3 - Orbit

View from above orbital plane
View from above orbital plane
View from above satellite
View from above satellite

Ground track
Ground track

The orbit data is extracted from the following two-line orbital elements,

1 25431U 98048A   15209.47572619  .00000031  00000-0  39840-5 0  9995
2 25431 086.3986 183.9904 0002527 087.5566 025.4796 14.34215187886757
Epoch (UTC): 28 July 2015 11:25:02
Eccentricity: 0.0002527
inclination: 86.3986°
perigee height: 776 km
apogee height: 779 km
right ascension of ascending node: 183.9904°
argument of perigee: 87.5566°
revolutions per day: 14.34215187
mean anomaly at epoch: 25.4796°
orbit number at epoch: 88675

The dashed part of the orbit path shows where the satellite is in the earth's shadow,  

DLR